Regional Weather Roundup
Issued by NWS Goodland, KS

Home | Current Version | Previous Version | Text Only | Print | Product List | Glossary Off
Versions: 1 2 3 4 5 6 7 8 9 10 11 12 13 14 15 16 17 18 19 20 21 22 23 24 25 26 27 28 29 30 31 32 33 34 35 36 37 38 39 40 41 42 43 44 45 46 47 48 49 50

000
ASUS43 KGLD 280959
RWRGLD

GOODLAND FORECAST AREA HOURLY WEATHER ROUNDUP
NATIONAL WEATHER SERVICE GOODLAND KS
400 AM MDT MON JUL 28 2014

...OFFICIAL OBSERVATIONS...

CITY           SKY/WX    TMP DP  RH WIND       PRES   REMARKS
GOODLAND KS    CLOUDY    62  53  72 S7        30.32S
HILL CITY KS   PTCLDY    61  54  77 N3        30.27R
IMPERIAL NEB   PTCLDY    57  50  77 CALM      30.32S
MCCOOK NEB     PTCLDY    59  54  83 NE5       30.30R
AKRON CO       PTCLDY    60  48  64 SE6       30.35S
BURLINGTON CO  CLOUDY    63  54  72 SE7       30.33F
LIMON CO       CLOUDY    58  56  93 SE3       30.39S
$$

...UNOFFICIAL OBSERVATIONS...

CITY           SKY/WX    TMP DP  RH WIND       PRES   REMARKS
COLBY KS       CLEAR     61  54  77 CALM      30.32R
LENORA KS        N/A     62  32  32 MISG        N/A
NORTON KS      CLEAR     57  52  82 NE6       30.28R
KIT CARSON CO    N/A     67  63  87 CALM        N/A
YUMA CO          N/A     60  52  74 CALM        N/A
$$


USA.gov is the U.S. government's official web portal to all federal, state and local government web resources and services.